Location: Medlow Airstrip Trail, Medlow Bath NSW 2780, Australia
(33.6682°S, 150.3233°E)
Time: 11:29:49
(UTC+11:00)

Tiros 1 despin weight - All Passes

Search period start: 19 October 2019 00:00
Search period end: 29 October 2019 00:00
Orbit: 594 x 643 km, 48.2° (Epoch: 17 October)

Date Brightness Start Highest point End Pass type
(mag) Time Alt. Az. Time Alt. Az. Time Alt. Az.
19 Oct - 11:48:32 10° NNE 11:50:05 12° NE 11:51:38 10° ENE daylight
19 Oct - 13:26:37 10° NW 13:31:06 87° NE 13:35:34 10° SE daylight
19 Oct - 15:09:36 10° WSW 15:13:05 22° SSW 15:16:33 10° SSE daylight
19 Oct - 16:54:07 10° SSW 16:55:58 12° S 16:57:50 10° SSE daylight
19 Oct - 18:35:45 10° SSW 18:38:57 19° SSE 18:42:09 10° ESE daylight
19 Oct - 20:16:37 10° SW 20:21:07 71° SE 20:25:36 10° ENE visible
19 Oct - 21:59:24 10° W 22:02:15 17° NW 22:05:07 10° N visible
20 Oct - 12:02:39 10° N 12:06:22 26° NE 12:10:06 10° ESE daylight
20 Oct - 13:43:24 10° WNW 13:47:44 47° SSW 13:52:04 10° SE daylight
20 Oct - 15:27:24 10° SW 15:30:07 16° SSW 15:32:51 10° SSE daylight
20 Oct - 17:11:06 10° SSW 17:13:11 13° S 17:15:15 10° SE daylight
20 Oct - 18:52:03 10° SSW 18:55:55 28° SSE 18:59:47 10° E daylight
20 Oct - 20:33:16 10° WSW 20:37:40 56° NW 20:42:04 10° NE visible
21 Oct - 12:18:23 10° NW 12:22:47 56° NE 12:27:10 10° ESE daylight
21 Oct - 14:00:41 10° W 14:04:32 28° SSW 14:08:24 10° SSE daylight
21 Oct - 15:45:13 10° SW 15:47:16 13° S 15:49:20 10° SSE daylight
21 Oct - 17:27:35 10° SSW 17:30:20 16° SSE 17:33:04 10° SE daylight
21 Oct - 19:08:22 10° SW 19:12:43 48° SSE 19:17:03 10° ENE daylight
21 Oct - 20:50:21 10° WSW 20:54:04 26° NW 20:57:48 10° N visible
22 Oct - 10:55:18 10° N 10:58:11 17° NE 11:01:03 10° E daylight
22 Oct - 12:34:51 10° WNW 12:39:20 70° SW 12:43:48 10° SE daylight
22 Oct - 14:18:19 10° WSW 14:21:30 19° SSW 14:24:40 10° SSE daylight
22 Oct - 16:02:36 10° SSW 16:04:28 12° S 16:06:20 10° SSE daylight
22 Oct - 17:43:53 10° SSW 17:47:22 22° SSE 17:50:51 10° ESE daylight
22 Oct - 19:24:52 10° SW 19:29:21 86° NW 19:33:50 10° NE daylight
22 Oct - 21:08:51 10° WNW 21:10:21 11° NW 21:11:51 10° NNW visible
23 Oct - 11:10:23 10° NNW 11:14:31 36° NE 11:18:38 10° ESE daylight
23 Oct - 12:51:51 10° W 12:56:03 37° SSW 13:00:13 10° SE daylight
23 Oct - 14:36:09 10° SW 14:38:35 14° SSW 14:41:01 10° SSE daylight
23 Oct - 16:19:20 10° SSW 16:21:40 14° S 16:23:59 10° SE daylight
23 Oct - 18:00:10 10° SW 18:04:15 34° SSE 18:08:21 10° E daylight
23 Oct - 19:41:39 10° WSW 19:45:50 40° NW 19:50:01 10° NNE visible
24 Oct - 09:49:25 10° NE 09:50:01 10° NE 09:50:37 10° ENE daylight
24 Oct - 11:26:28 10° NW 11:30:59 78° NE 11:35:29 10° SE daylight
24 Oct - 13:09:18 10° WSW 13:12:55 23° SSW 13:16:31 10° SSE daylight
24 Oct - 14:53:52 10° SSW 14:55:46 12° S 14:57:41 10° SSE daylight
24 Oct - 16:35:43 10° SSW 16:38:47 18° SSE 16:41:50 10° ESE daylight
24 Oct - 18:16:33 10° SW 18:21:00 63° SE 18:25:25 10° ENE daylight
24 Oct - 19:59:05 10° W 20:02:11 18° NW 20:05:17 10° N visible
25 Oct - 10:02:41 10° N 10:06:17 23° NE 10:09:53 10° E daylight
25 Oct - 11:43:11 10° WNW 11:47:36 52° SW 11:52:00 10° SE daylight
25 Oct - 13:27:03 10° SW 13:29:55 16° SSW 13:32:48 10° SSE daylight
25 Oct - 15:10:58 10° SSW 15:12:58 13° S 15:14:58 10° SSE daylight
25 Oct - 16:52:00 10° SSW 16:55:45 26° SSE 16:59:30 10° E daylight
25 Oct - 18:33:09 10° WSW 18:37:34 63° NW 18:41:58 10° NE daylight
26 Oct - 10:18:17 10° NNW 10:22:41 50° NE 10:27:03 10° ESE daylight
26 Oct - 12:00:23 10° W 12:04:23 30° SSW 12:08:21 10° SE daylight
26 Oct - 13:44:53 10° SW 13:47:04 13° S 13:49:14 10° SSE daylight
26 Oct - 15:27:30 10° SSW 15:30:07 15° SSE 15:32:45 10° SE daylight
26 Oct - 17:08:18 10° SW 17:12:35 43° SSE 17:16:50 10° ENE daylight
26 Oct - 18:50:09 10° WSW 18:53:59 29° NW 18:57:49 10° NNE daylight
27 Oct - 08:55:29 10° NNE 08:58:05 15° NE 09:00:42 10° E daylight
27 Oct - 10:34:39 10° NW 10:39:12 78° SW 10:43:44 10° SE daylight
27 Oct - 12:17:58 10° WSW 12:21:18 20° SSW 12:24:38 10° SSE daylight
27 Oct - 14:02:23 10° SSW 14:04:15 12° S 14:06:08 10° SSE daylight
27 Oct - 15:43:49 10° SSW 15:47:11 20° SSE 15:50:33 10° ESE daylight
27 Oct - 17:24:46 10° SW 17:29:14 85° SE 17:33:41 10° NE daylight
27 Oct - 19:08:14 10° W 19:10:17 13° NW 19:12:19 10° NNW daylight
28 Oct - 09:10:20 10° NNW 09:14:25 32° NE 09:18:28 10° ESE daylight
28 Oct - 10:51:35 10° WNW 10:55:53 41° SSW 11:00:10 10° SE daylight
28 Oct - 12:35:47 10° SW 12:38:23 15° SSW 12:40:57 10° SSE daylight
28 Oct - 14:19:13 10° SSW 14:21:27 13° S 14:23:41 10° SE daylight
28 Oct - 16:00:06 10° SW 16:04:06 31° SSE 16:08:06 10° E daylight
28 Oct - 17:41:29 10° WSW 17:45:45 45° NW 17:49:59 10° NNE daylight
